Regional Weather Roundup
Issued by NWS

Home | Current Version | Previous Version | Graphics & Text | Print | Product List | Glossary On
Versions: 1 2 3 4 5 6 7 8 9 10 11 12 13 14 15 16 17 18 19 20 21 22 23 24 25 26 27 28 29 30 31 32 33 34 35 36 37 38 39 40 41 42 43 44 45 46 47 48 49 50
000
ASUS43 KMPX 262210
RWRMN
WEATHER ROUNDUP FOR MINNESOTA
NATIONAL WEATHER SERVICE TWIN CITIES/CHANHASSEN MN
400 PM CST MON JAN 26 2015


NOTE: "FAIR" INDICATES FEW OR NO CLOUDS BELOW 12,000 FEET WITH NO
SIGNIFICANT WEATHER AND/OR OBSTRUCTIONS TO VISIBILITY. N/A MEANS
CURRENT SKY AND/OR WEATHER CONDITIONS ARE NOT AVAILABLE.

MNZ060>063-068>070-262300-
   Twin Cities Metro

CITY           SKY/WX    TMP DP  RH WIND       PRES   REMARKS
TWIN CITIES    CLOUDY    42  32  67 W15G23    29.77R
ST PAUL        CLOUDY    42  33  70 NW13      29.78R
CRYSTAL        CLOUDY    42  32  67 NW9       29.77R
BLAINE         CLOUDY    43  34  70 W12G17    29.77R
LAKEVILLE      CLOUDY    39  34  81 W13       29.77R
EDEN PRAIRIE   CLOUDY    42  32  67 NW14      29.77R
SOUTH ST PAUL  CLOUDY    43  32  64 NW12      29.77R
LAKE ELMO      CLOUDY    41  32  70 NW7       29.77R
$$
MNZ001>005-007-008-013>017-022>024-027-028-262300-
   Northwest Minnesota

CITY           SKY/WX    TMP DP  RH WIND       PRES   REMARKS
BEMIDJI        CLOUDY    32  28  83 NW16G22   29.82R WCI  21
HALLOCK        CLOUDY    28  25  86 N13       29.92R WCI  18
ROSEAU         CLOUDY    28  25  86 N9        29.87R WCI  20
WARROAD        CLOUDY    28  25  86 NW10      29.87R WCI  19
THIEF RVR FALL CLOUDY    30  25  80 NW14      29.89R WCI  20
CROOKSTON      CLOUDY    28  27  93 N18       29.92R WCI  16
FOSSTON        CLOUDY    28  25  86 N16G23    29.87R WCI  17
DETROIT LAKES  CLOUDY    32  30  93 NW16      29.87R WCI  21
MOORHEAD       CLOUDY    36  34  93 N14       29.92R
PARK RAPIDS    CLOUDY    35  28  75 NW15      29.80R WCI  25
MAHNOMEN       CLOUDY    30  27  90 NW15      29.87R WCI  19
$$
MNZ006-009>011-018-025>026-262300-
   North Central Minnesota

CITY           SKY/WX    TMP DP  RH WIND       PRES   REMARKS
BAUDETTE       CLOUDY    28  22  78 NW14      29.84R WCI  17
FLAG ISLAND    CLOUDY    27  21  80 NW16      29.86R WCI  14
INTL FALLS     CLOUDY    28  23  81 N12       29.80R WCI  18
WASKISH        CLOUDY    30  27  86 NW9G17    29.84R WCI  22
BIG FORK       CLOUDY    30  27  86 NW6       29.78R WCI  24
LONGVILLE      CLOUDY    36  28  75 NW9       29.78R
GRAND RAPIDS   CLOUDY    34  28  80 NW17      29.75R WCI  23
CRANE LAKE     CLOUDY    25  23  93 N7        29.80R WCI  17
ORR            CLOUDY    27  23  86 NW6       29.74R WCI  20
COOK           CLOUDY    28  27  93 NW7       29.76R WCI  21
WALKER         CLOUDY    33  29  84 NW10G16   29.80R WCI  25
$$
MNZ012-019>021-037-262300-
   Northeast Minnesota

CITY           SKY/WX    TMP DP  RH WIND       PRES   REMARKS
DULUTH         LGT SNOW  31  27  85 N6        29.72R FOG     WCI  25
ELY            CLOUDY    25  23  93 CALM      29.74R
HIBBING        CLOUDY    32  26  78 N17       29.74R WCI  21
EVELETH        CLOUDY    32  30  93 N10G17    29.74R WCI  24
DULUTH HARBOR  CLOUDY    30  27  86 CALM      29.77R
TWO HARBORS    CLOUDY    28  25  86 CALM      29.72R
SILVER BAY     LGT SNOW  28  25  86 CALM      29.73R
GRAND MARAIS     N/A     27  23  85 CALM      29.78R
G MARAIS ARPRT LGT SNOW  19  16  86 NE3       29.72R
$$
MNZ029>031-032-039>041-046>048-054>057-064-262300-
   West Central Minnesota

CITY           SKY/WX    TMP DP  RH WIND       PRES   REMARKS
FERGUS FALLS   MOSUNNY   36  28  75 N16       29.90R
WHEATON        CLOUDY    39  32  75 NW15G23   29.91R
MORRIS         CLOUDY    41  34  75 NW17G28   29.86R
ALEXANDRIA     PTSUNNY   38  29  70 NW18G31   29.83R
ELBOW LAKE     PTSUNNY   36  32  84 NW14      29.86R
WADENA         CLOUDY    34  28  80 NW17      29.82R WCI  23
GLENWOOD       PTSUNNY   37  30  75 NW21G26   29.83S
APPLETON       MOSUNNY   43  34  70 NW15      29.88R
BENSON         PTSUNNY   43  34  70 N16G24    29.86R
ORTONVILLE     MOSUNNY   43  34  70 NW15G22   29.89R
MADISON        PTSUNNY   45  37  76 NW14      29.89R
WILLMAR        CLOUDY    39  34  81 NW16G23   29.85R
$$
MNZ033>034-036-042>043-049>051-058-059-262300-
   Central Minnesota

CITY           SKY/WX    TMP DP  RH WIND       PRES   REMARKS
ST CLOUD       CLOUDY    40  29  64 NW15G26   29.79R
SAUK CENTRE    CLOUDY    37  30  75 NW17G26   29.82R
PAYNESVILLE    CLOUDY    36  31  82 W14G20    29.82R
AITKIN         CLOUDY    39  30  70 NW6       29.76R
PINE RIVER     CLOUDY    36  28  75 NW13G18   29.82R
BRAINERD       CLOUDY    37  28  70 N16       29.79R
STAPLES        CLOUDY    36  28  75 NW16      29.81R
LONG PRAIRIE   CLOUDY    34  30  86 NW24G35   29.81R WCI  21
LITTLE FALLS   CLOUDY    37  28  70 NW13G23   29.80R
LITCHFIELD     CLOUDY    41  36  81 NW14      29.82R
BUFFALO        CLOUDY    39  32  75 W9        29.79S
MAPLE LAKE     CLOUDY    41  34  77 W12G17    29.80R
$$
MNZ037-044-045-052-053-262300-
   East Central Minnesota

CITY           SKY/WX    TMP DP  RH WIND       PRES   REMARKS
PRINCETON      CLOUDY    43  30  61 W15       29.78R
MORA           CLOUDY    39  30  70 NW8       29.77R
CAMBRIDGE      CLOUDY    43  30  61 W7        29.74R
RUSH CITY      CLOUDY    39  32  74 NW6       29.76R
MOOSE LAKE     CLOUDY    36  32  87 NW5       29.73R
HINCKLEY       CLOUDY    37  34  87 NW5       29.76R
CLOQUET        CLOUDY    34  30  86 NW7       29.73R WCI  28
MCGREGOR       CLOUDY    36  32  87 NW13      29.76R
$$
MNZ071>073-080-081-089-090-097-098-262300-
   Southwest Minnesota

CITY           SKY/WX    TMP DP  RH WIND       PRES   REMARKS
MONTEVIDEO     CLOUDY    43  36  75 N13G18    29.88R
GRANITE FALLS  CLOUDY    42  35  76 NW12G20   29.89R
CANBY          PTSUNNY   43  34  70 NW15G22   29.91R
MARSHALL       CLOUDY    43  34  70 N21       29.90R
REDWOOD FALLS  CLOUDY    43  34  70 NW15G23   29.86R
OLIVIA         CLOUDY    37  34  87 NW15G21   29.85R
PIPESTONE      SUNNY     43  36  75 NW18G25   29.89R
WINDOM         PTSUNNY   43  36  75 NW12      29.86R
WORTHINGTON    SUNNY     43  34  70 NW18G24   29.88R
JACKSON        PTSUNNY   43  36  75 NW13      29.86R
TRACY          MOSUNNY   43  37  79 NW14      29.87R
SLAYTON        SUNNY     42  34  72 NW17G26   29.88R
$$
MNZ065>067-074>077-082>085-091>093-262300-
   South Central Minnesota

CITY           SKY/WX    TMP DP  RH WIND       PRES   REMARKS
MANKATO        MOSUNNY   43  36  75 NW24      29.81R
NEW ULM        PTSUNNY   43  34  70 NW20G28   29.84R
ST JAMES       MOSUNNY   43  36  75 NW17G25   29.85R
FAIRMONT       PTSUNNY   45  34  65 NW15G25   29.83R
GLENCOE        CLOUDY    41  36  81 W14       29.80R
FARIBAULT      CLOUDY    39  36  87 W10       29.80R
OWATONNA       PTSUNNY   41  34  75 NW17      29.79R
WASECA         CLOUDY    39  34  81 NW14G20   29.81R
ALBERT LEA     PTSUNNY   43  37  81 NW5       29.79R
$$
MNZ078>079-086>088-094>096-262300-
   Southeast Minnesota

CITY           SKY/WX    TMP DP  RH WIND       PRES   REMARKS
ROCHESTER      PTSUNNY   37  32  82 NW14      29.77R
RED WING       CLOUDY    43  32  65 CALM      29.76R
STANTON        CLOUDY    41  34  75 W13       29.77R
DODGE CENTER   PTSUNNY   39  36  87 NW13G20   29.77R
WINONA         CLOUDY    30  27  86 SE3       29.79R
AUSTIN         MOSUNNY   39  36  87 NW15      29.78R
PRESTON        PTSUNNY   37  32  82 NW12      29.77R
$$
ABBREVIATIONS USED IN REMARKS
   TC - TEMPERATURES IN CELSIUS
  WCI - WIND CHILL INDEX
   HX - HEAT INDEX
  VSB - VISIBILITY
$$



USA.gov is the U.S. government's official web portal to all federal, state and local government web resources and services.